Regional Weather Roundup
Issued by NWS

Home | Current Version | Previous Version | Text Only | Print | Product List | Glossary On
Versions: 1 2 3 4 5 6 7 8 9 10 11 12 13 14 15 16 17 18 19 20 21 22 23 24 25 26 27
000
ASUS42 KTBW 200817
RWRFL
FLORIDA REGIONAL WEATHER ROUNDUP
NATIONAL WEATHER SERVICE TAMPA BAY RUSKIN FL
400 AM EDT SUN AUG 20 2017

NOTE: "FAIR" INDICATES FEW OR NO CLOUDS BELOW 12,000 FEET WITH NO
SIGNIFICANT WEATHER AND/OR OBSTRUCTIONS TO VISIBILITY.

FLZ001>010-012>015-112-114-115-200900-
PANHANDLE FLORIDA

CITY           SKY/WX    TMP DP  RH WIND       PRES   REMARKS
PENSACOLA      CLEAR     78  72  81 NW5       29.98S
PENSACOLA NAS  CLEAR     75  71  87 NW3       29.97S
MILTON NAS     CLEAR     72  72 100 CALM      29.98  FOG
CRESTVIEW      CLEAR     73  71  93 CALM      30.00S FOG
DUKE FIELD     FAIR      74  72  95 CALM      29.98S
VALPARAISO     CLEAR     78  74  90 N3        29.97S
MARY ESTHER    CLEAR     76  76  99 N6        29.96F
PANAMA CITY    FAIR      77  75  93 CALM      29.97F
TYNDALL AFB    CLEAR     77  76  96 CALM      29.97F
APALACHICOLA   CLEAR     76  76 100 CALM      29.97S

STATION/POSITION SKY/WX   TEMP    WIND        PRES    WAVE   SWELL
                          AIR SEA DIR/SP/G            HT/PER HT/PER
                          (F)     (DEG/KT/KT) (MB)    (FT/S) (FT/S)
30.1N   87.6W              83 88   10/  8/ 10 1014.9F   1
29.2N   88.2W              85 88   40/  4/  6 1015.1
28.8N   86.0W              84 86  320/  2/  4 1014.8F   1/ 5   2/ 5
PANAMA CITY BEAC           82      40/  2/  3 1015.5F
TOWER C                    84                 1015.6F
28.5N   84.5W              83 86   CALM  /  2 1015.0F   1/ 4

$$
FLZ011-016>038-118-127-128-134-139-239-200900-
NORTH FLORIDA

CITY           SKY/WX    TMP DP  RH WIND       PRES   REMARKS
MARIANNA       CLEAR     77  76  96 CALM      29.98S
TALLAHASSEE    CLEAR     74  74 100 CALM      29.98S
PERRY          CLEAR     75  74  96 CALM      29.99S
LIVE OAK       PTCLDY    75  75 100 CALM      30.00S FOG
CROSS CITY     CLEAR     74  73  96 CALM      30.03S
LAKE CITY      FAIR      72  72 100 CALM      30.00S
GAINESVILLE    CLEAR     74  72  93 CALM      30.01F
WILLISTON      CLEAR     75  75 100 CALM      29.99S
PALATKA        FAIR      77  77 100 S3        29.99S
MAYPORT NAS    CLEAR     78  75  90 S5        29.98F
JACKSONVILLE   PTCLDY    74  74 100 CALM      29.98F
JAX NAS        CLEAR     80  76  87 NW5       29.99S
JAX CECIL      CLEAR     73  73 100 CALM      29.99S
FERNANDINA BEA FAIR      79  73  83 S3        29.98S
ST AUGUSTINE   CLEAR     79  76  90 S6        30.00F
PALM COAST     FAIR      76  18  11 CALM      29.99F

STATION/POSITION SKY/WX   TEMP    WIND        PRES    WAVE   SWELL
                          AIR SEA DIR/SP/G            HT/PER HT/PER
                          (F)     (DEG/KT/KT) (MB)    (FT/S) (FT/S)
SHELL POINT      NOT AVBL
KEATON BEACH               78      40/  2/  3 1014.8F
CEDAR KEY                  81      60/  5/  7 1015.7R
FERNANDINA                 80 85   CALM  /  1 1016.2F
30.7N   81.3W                 84                N/A     3/ 8
MAYPORT                    80 86  180/  3/  5 1015.9F
31.4N   80.9W              84 85  170/ 14/ 16 1014.9F   3/10   2/10
ST AUGUSTINE               80 82  180/  7/  8 1015.7F

$$
FLZ040-043>046-052-053-057-058-063-144-200900-
INTERIOR CENTRAL FLORIDA

CITY           SKY/WX    TMP DP  RH WIND       PRES   REMARKS
OCALA          CLEAR     75  75 100 CALM      29.99F
THE VILLAGES     N/A     77  77 100 CALM      29.90R
LEESBURG       PTCLDY    82  78  88 SE5       30.00S
SANFORD        CLOUDY    80  76  87 CALM      29.99F
ORLANDO EXEC   CLOUDY    81  77  88 CALM      29.99F
ORLANDO INTL   CLOUDY    77  77 100 CALM      29.99F
KISSIMMEE      CLOUDY    80  77  90 MISG      30.00F
WINTER HAVEN   MOCLDY    80  75  84 SE3       30.00S
LAKELAND         N/A     77  77 100 CALM      29.99F
BARTOW         MOCLDY    75 N/A N/A CALM      29.99F
SEBRING        FAIR      78  74  88 CALM      29.97S
OKEECHOBEE     CLOUDY    75  73  94 NE3       29.96F

$$
FLZ041-047-054-059-064-141-147-200900-
EAST CENTRAL FLORIDA

CITY           SKY/WX    TMP DP  RH WIND       PRES   REMARKS
DAYTONA BEACH  CLOUDY    79  78  97 CALM      30.00S
DELAND         PTCLDY    77  75  94 N3        29.99F
JFK SPACE CTR  PTCLDY    76  76 100 CALM      29.98S
CAPE CANAVERAL PTCLDY    79  76  91 SE5       29.97F
PATRICK AFB    CLOUDY    82  79  89 SE5       29.98S
MELBOURNE      PTCLDY    82  77  84 CALM      29.98S
VERO BEACH     MOCLDY    79  77  94 NW3       29.97F
FT PIERCE      PTCLDY    79  78  97 CALM      29.97S
STUART         CLOUDY    82  79  89 CALM      29.98R

STATION/POSITION SKY/WX   TEMP    WIND        PRES    WAVE   SWELL
                          AIR SEA DIR/SP/G            HT/PER HT/PER
                          (F)     (DEG/KT/KT) (MB)    (FT/S) (FT/S)
28.5N   80.2W              85 84  130/  6/  8 1016.5F   2/ 8   2/ 8
28.9N   78.5W              83 85  160/ 12/ 14 1015.4F   3/ 8   2/ 8
TRIDENT PIER               81 86  120/  4/  5 1016.9F
28.4N   80.5W                 85                N/A     2/ 9
27.5N   80.2W                 83                N/A     2/ 8

$$
FLZ050-056-061-142-242-148-248-149-249-151-251-155-255-
160-260-200900-
WEST CENTRAL FLORIDA

CITY           SKY/WX    TMP DP  RH WIND       PRES   REMARKS
CRYSTAL RIVER  FAIR      75  73  94 CALM      29.98S
INVERNESS      FAIR      75  75 100 CALM      29.99F
BROOKSVILLE    CLEAR     77  75  93 CALM      29.99F
CLEARWATER AIR FAIR      79  73  83 CALM      29.97S
ST PETE CLEARW PTCLDY    81  76  84 CALM      29.96F
TAMPA INTL     PTCLDY    83  75  77 CALM      29.97F
TAMPA EXEC     CLEAR     79  73  83 CALM      29.98F
PLANT CITY     PTCLDY    77  77 100 E3        30.01S
MACDILL AFB    CLEAR     80  80 100 SE8       29.96F
PETER O KNIGHT PTCLDY    82  79  89 SE6       29.97F
ST PETERSBURG  PTCLDY    85  75  72 SE12      29.94F
SARASOTA       CLEAR     78  74  87 E7        29.94F
VENICE         FAIR      81  75  83 SE6       29.96F

STATION/POSITION SKY/WX   TEMP    WIND        PRES    WAVE   SWELL
                          AIR SEA DIR/SP/G            HT/PER HT/PER
                          (F)     (DEG/KT/KT) (MB)    (FT/S) (FT/S)
CLEARWATER BEACH           83 89   50/  4/  5 1014.9F
MIDDLE TAMPA BAY           82     130/  8/ 10 1014.6F
VENICE                     82 89  120/  5/  6 1015.0R

$$
FLZ066-069-070-075>078-162-262-165-265-200900-
SOUTHWEST FLORIDA AND KEYS

CITY           SKY/WX    TMP DP  RH WIND       PRES   REMARKS
PUNTA GORDA    PTCLDY    77  75  93 N3        29.98S
FT MYERS       PTCLDY    79  78  97 CALM      29.95S
SOUTHWEST INTL PTCLDY    79  76  90 N3        29.95S
NAPLES         PTCLDY    80  77  90 E5        29.93F
IMMOKALEE      FAIR      77  75  94 CALM      29.96S
MARATHON       CLOUDY    84  76  76 E8        29.93F
KEY WEST NAS   PTCLDY    83  79  88 E10       29.92F
KEY WEST INTL  PTCLDY    84  78  82 E9        29.92F HX  95

STATION/POSITION SKY/WX   TEMP    WIND        PRES    WAVE   SWELL
                          AIR SEA DIR/SP/G            HT/PER HT/PER
                          (F)     (DEG/KT/KT) (MB)    (FT/S) (FT/S)
NAPLES                        90   80/  3/  4 1013.7F
DRY TORTUGAS               84     130/ 14/ 15 1013.5F
SAND KEY                   83                 1013.8F

$$
FLZ067-068-071>074-168-172>174-200900-
SOUTHEAST FLORIDA

CITY           SKY/WX    TMP DP  RH WIND       PRES   REMARKS
W PALM BEACH   CLOUDY    82  75  79 SE7       29.98R
FT LAUDER-EXEC CLOUDY    81  76  84 CALM      29.97R
FT LAUDERDALE  CLOUDY    83  74  74 SE5       29.96R
POMPANO BEACH  CLOUDY    85  73  67 SE10      29.97R
PEMBROKE PINES MOCLDY    82  74  76 NE5       29.98S
OPA LOCKA      CLOUDY    82  76  81 E3        29.97S
MIAMI          CLOUDY    83  73  72 NE3       29.96S
WEST KENDALL   CLOUDY    83  73  72 E7        29.95F
HOMESTEAD      CLOUDY    80  76  85 NE9       29.94F

STATION/POSITION SKY/WX   TEMP    WIND        PRES    WAVE   SWELL
                          AIR SEA DIR/SP/G            HT/PER HT/PER
                          (F)     (DEG/KT/KT) (MB)    (FT/S) (FT/S)
PORT EVERGLADES            84     100/  5/ 10 1014.6R
VIRGINIA KEY               82 90   10/  2/  5 1014.0R
LAKE WORTH                        150/  8/ 10   N/A
FOWEY ROCKS                83 87  110/  5/  6 1014.9F
SETTLEMENT POINT           83      80/  9/ 10 1015.3F

$$





USA.gov is the U.S. government's official web portal to all federal, state and local government web resources and services.